Terminal Aerodrome Forecast
Issued by NWS

Home | Current Version | Previous Version | Text Only | Print | Product List | Glossary On
Versions: 1 2 3 4 5 6 7 8 9 10 11 12 13 14 15 16 17 18 19 20 21
000
FTUS44 KOHX 161000 AAB
TAFCKV
TAF AMD
KCKV 161001Z 1610/1706 33005KT P6SM VCSH OVC015
     FM161500 35007KT P6SM BKN035
     FM170100 34003KT P6SM FEW035=

USA.gov is the U.S. government's official web portal to all federal, state and local government web resources and services.